Location: *
(45.5667°S, 177.5167°W)
Time: 22:29:40
(UTC+00:00)

Okean 3 Rocket - Pass Details

Date: 29 May 2022
Orbit: 615 x 643 km, 82.5° (Epoch: 24 June)

Event Time Altitude Azimuth Distance (km) Brightness Sun altitude
Rises 05:59:44 0° 17° (NNE) 2,952 7.0 -17.3°
Reaches altitude 10° 06:02:07 10° 26° (NNE) 2,051 6.1 -17.7°
Enters shadow 06:05:27 31° 69° (ENE) 1,135 4.4 -18.3°
